Time,TemperatureF,DewpointF,PressureIn,WindDirection,WindDirectionDegrees,WindSpeedMPH,WindSpeedGustMPH,Humidity,HourlyPrecipIn,Conditions,Clouds,dailyrainin,SoftwareType,DateUTC
2013-05-14 00:01:00,52.0,34.0,29.96,East,99,1.0,3.0,50,0.00,,,0.00,,2013-05-14 05:01:00,
2013-05-14 00:12:00,52.0,34.0,29.96,East,99,1.0,3.0,50,0.00,,,0.00,,2013-05-14 05:12:00,
2013-05-14 00:22:00,51.0,34.0,29.95,SE,126,1.0,3.0,51,0.00,,,0.00,,2013-05-14 05:22:00,
2013-05-14 00:32:00,51.0,34.0,29.95,SE,126,1.0,3.0,51,0.00,,,0.00,,2013-05-14 05:32:00,
2013-05-14 00:42:00,51.0,34.0,29.95,SE,126,1.0,3.0,51,0.00,,,0.00,,2013-05-14 05:42:00,
2013-05-14 00:52:00,51.0,34.0,29.93,SSE,149,1.0,5.0,53,0.00,,,0.00,,2013-05-14 05:52:00,
2013-05-14 01:01:00,51.0,34.0,29.92,SE,129,2.0,6.0,53,0.00,,,0.00,,2013-05-14 06:01:00,
2013-05-14 01:12:00,51.0,34.0,29.92,SE,129,2.0,6.0,53,0.00,,,0.00,,2013-05-14 06:12:00,
2013-05-14 01:22:00,51.0,35.0,29.91,South,185,3.0,7.0,54,0.00,,,0.00,,2013-05-14 06:22:00,
2013-05-14 01:32:00,52.0,36.0,29.91,SSE,147,1.0,6.0,54,0.00,,,0.00,,2013-05-14 06:32:00,
2013-05-14 01:42:00,52.0,36.0,29.91,SSE,147,1.0,6.0,54,0.00,,,0.00,,2013-05-14 06:42:00,
2013-05-14 01:52:00,52.0,35.0,29.90,SE,145,3.0,7.0,53,0.00,,,0.00,,2013-05-14 06:52:00,
2013-05-14 02:02:00,53.0,36.0,29.88,SSE,156,3.0,10.0,52,0.00,,,0.00,,2013-05-14 07:02:00,
2013-05-14 02:11:00,53.0,36.0,29.88,SSE,156,3.0,10.0,52,0.00,,,0.00,,2013-05-14 07:11:00,
2013-05-14 02:21:00,54.0,37.0,29.88,South,187,1.0,8.0,52,0.00,,,0.00,,2013-05-14 07:21:00,
2013-05-14 02:32:00,54.0,37.0,29.87,SSE,149,1.0,7.0,52,0.00,,,0.00,,2013-05-14 07:32:00,
2013-05-14 02:42:00,54.0,37.0,29.87,SSW,192,3.0,8.0,53,0.00,,,0.00,,2013-05-14 07:42:00,
2013-05-14 02:52:00,54.0,37.0,29.87,SSW,192,3.0,8.0,53,0.00,,,0.00,,2013-05-14 07:52:00,
2013-05-14 03:02:00,55.0,38.0,29.86,South,171,3.0,11.0,52,0.00,,,0.00,,2013-05-14 08:02:00,
2013-05-14 03:11:00,55.0,38.0,29.86,South,171,3.0,11.0,52,0.00,,,0.00,,2013-05-14 08:11:00,
2013-05-14 03:21:00,56.0,38.0,29.85,South,186,4.0,12.0,50,0.00,,,0.00,,2013-05-14 08:21:00,
2013-05-14 03:31:00,56.0,38.0,29.85,South,178,2.0,11.0,50,0.00,,,0.00,,2013-05-14 08:31:00,
2013-05-14 03:41:00,56.0,38.0,29.85,South,187,5.0,14.0,50,0.00,,,0.00,,2013-05-14 08:41:00,
2013-05-14 03:52:00,56.0,38.0,29.85,South,187,5.0,14.0,50,0.00,,,0.00,,2013-05-14 08:52:00,
2013-05-14 04:02:00,57.0,39.0,29.83,South,180,4.0,11.0,50,0.00,,,0.00,,2013-05-14 09:02:00,
2013-05-14 04:11:00,57.0,39.0,29.83,South,180,4.0,11.0,50,0.00,,,0.00,,2013-05-14 09:11:00,
2013-05-14 04:22:00,57.0,39.0,29.83,SSE,155,4.0,10.0,51,0.00,,,0.00,,2013-05-14 09:22:00,
2013-05-14 04:32:00,57.0,39.0,29.82,South,180,5.0,14.0,50,0.00,,,0.00,,2013-05-14 09:32:00,
2013-05-14 04:44:00,57.0,39.0,29.81,South,187,6.0,16.0,51,0.00,,,0.00,,2013-05-14 09:44:00,
2013-05-14 04:54:00,57.0,39.0,29.81,South,187,6.0,16.0,51,0.00,,,0.00,,2013-05-14 09:54:00,
2013-05-14 05:04:00,56.0,38.0,29.80,SSW,198,4.0,12.0,51,0.00,,,0.00,,2013-05-14 10:04:00,
2013-05-14 05:14:00,56.0,38.0,29.80,SSW,198,4.0,12.0,51,0.00,,,0.00,,2013-05-14 10:14:00,
2013-05-14 05:25:00,56.0,39.0,29.79,SW,227,3.0,13.0,52,0.00,,,0.00,,2013-05-14 10:25:00,
2013-05-14 05:33:00,56.0,39.0,29.79,SW,227,3.0,13.0,52,0.00,,,0.00,,2013-05-14 10:33:00,
2013-05-14 05:42:00,56.0,39.0,29.79,SW,227,3.0,13.0,52,0.00,,,0.00,,2013-05-14 10:42:00,
2013-05-14 05:52:00,56.0,40.0,29.78,SSW,211,4.0,17.0,54,0.00,,,0.00,,2013-05-14 10:52:00,
2013-05-14 06:02:00,56.0,40.0,29.78,SSE,165,2.0,17.0,54,0.00,,,0.00,,2013-05-14 11:02:00,
2013-05-14 06:11:00,56.0,40.0,29.78,SSE,165,2.0,17.0,54,0.00,,,0.00,,2013-05-14 11:11:00,
2013-05-14 06:21:00,56.0,40.0,29.78,SSE,165,2.0,17.0,54,0.00,,,0.00,,2013-05-14 11:21:00,
2013-05-14 06:32:00,56.0,41.0,29.77,South,184,3.0,11.0,58,0.00,,,0.00,,2013-05-14 11:32:00,
2013-05-14 06:43:00,56.0,41.0,29.77,South,184,3.0,11.0,58,0.00,,,0.00,,2013-05-14 11:43:00,
2013-05-14 06:53:00,56.0,42.0,29.77,SSW,198,4.0,17.0,59,0.00,,,0.00,,2013-05-14 11:53:00,
2013-05-14 07:02:00,56.0,42.0,29.77,SSW,198,4.0,17.0,59,0.00,,,0.00,,2013-05-14 12:02:00,
2013-05-14 07:12:00,56.0,42.0,29.77,SSW,198,4.0,17.0,59,0.00,,,0.00,,2013-05-14 12:12:00,
2013-05-14 07:21:00,57.0,43.0,29.76,SW,231,3.0,14.0,60,0.00,,,0.00,,2013-05-14 12:21:00,
2013-05-14 07:32:00,58.0,44.0,29.76,SSW,209,4.0,17.0,60,0.00,,,0.00,,2013-05-14 12:32:00,
2013-05-14 07:42:00,58.0,44.0,29.76,SSW,209,4.0,17.0,60,0.00,,,0.00,,2013-05-14 12:42:00,
2013-05-14 07:52:00,59.0,45.0,29.75,SW,230,5.0,14.0,59,0.00,,,0.00,,2013-05-14 12:52:00,
2013-05-14 08:01:00,59.0,45.0,29.75,SW,230,5.0,14.0,59,0.00,,,0.00,,2013-05-14 13:01:00,
2013-05-14 08:11:00,59.0,45.0,29.75,SW,230,5.0,14.0,59,0.00,,,0.00,,2013-05-14 13:11:00,
2013-05-14 08:22:00,59.0,45.0,29.75,SW,230,5.0,14.0,59,0.00,,,0.00,,2013-05-14 13:22:00,
2013-05-14 08:32:00,62.0,47.0,29.76,WSW,237,6.0,19.0,58,0.00,,,0.00,,2013-05-14 13:32:00,
2013-05-14 08:42:00,62.0,47.0,29.76,WSW,237,6.0,19.0,58,0.00,,,0.00,,2013-05-14 13:42:00,
2013-05-14 08:52:00,62.0,47.0,29.76,WSW,237,6.0,19.0,58,0.00,,,0.00,,2013-05-14 13:52:00,
2013-05-14 09:01:00,63.0,48.0,29.75,SSW,200,3.0,17.0,57,0.00,,,0.00,,2013-05-14 14:01:00,
2013-05-14 09:11:00,66.0,50.0,29.74,WSW,239,5.0,17.0,57,0.00,,,0.00,,2013-05-14 14:11:00,
2013-05-14 09:22:00,66.0,50.0,29.74,WSW,239,5.0,17.0,57,0.00,,,0.00,,2013-05-14 14:22:00,
2013-05-14 09:31:00,66.0,50.0,29.74,WSW,239,5.0,17.0,57,0.00,,,0.00,,2013-05-14 14:31:00,
2013-05-14 09:42:00,66.0,50.0,29.74,WSW,239,5.0,17.0,57,0.00,,,0.00,,2013-05-14 14:42:00,
2013-05-14 09:52:00,68.0,51.0,29.73,WSW,253,6.0,17.0,54,0.00,,,0.00,,2013-05-14 14:52:00,
2013-05-14 10:01:00,68.0,51.0,29.73,WSW,253,6.0,17.0,54,0.00,,,0.00,,2013-05-14 15:01:00,
2013-05-14 10:12:00,68.0,51.0,29.73,WSW,253,6.0,17.0,54,0.00,,,0.00,,2013-05-14 15:12:00,
2013-05-14 10:21:00,68.0,51.0,29.73,WSW,253,6.0,17.0,54,0.00,,,0.00,,2013-05-14 15:21:00,
2013-05-14 10:33:00,68.0,51.0,29.73,WSW,253,6.0,17.0,54,0.00,,,0.00,,2013-05-14 15:33:00,
2013-05-14 10:43:00,71.0,53.0,29.72,WSW,257,2.0,13.0,53,0.00,,,0.00,,2013-05-14 15:43:00,
2013-05-14 10:53:00,71.0,53.0,29.72,WSW,257,2.0,13.0,53,0.00,,,0.00,,2013-05-14 15:53:00,
2013-05-14 11:02:00,71.0,53.0,29.72,WSW,257,2.0,13.0,53,0.00,,,0.00,,2013-05-14 16:02:00,
2013-05-14 11:12:00,71.0,53.0,29.72,WSW,257,2.0,13.0,53,0.00,,,0.00,,2013-05-14 16:12:00,
2013-05-14 11:23:00,75.0,54.0,29.72,WSW,247,6.0,17.0,48,0.00,,,0.00,,2013-05-14 16:23:00,
2013-05-14 11:33:00,75.0,55.0,29.72,WSW,257,3.0,14.0,49,0.00,,,0.00,,2013-05-14 16:33:00,
2013-05-14 11:44:00,75.0,55.0,29.72,WSW,257,3.0,14.0,49,0.00,,,0.00,,2013-05-14 16:44:00,
2013-05-14 11:54:00,77.0,54.0,29.72,West,269,4.0,12.0,45,0.00,,,0.00,,2013-05-14 16:54:00,
2013-05-14 12:03:00,78.0,54.0,29.73,WSW,242,3.0,13.0,44,0.00,,,0.00,,2013-05-14 17:03:00,
2013-05-14 12:13:00,78.0,54.0,29.73,WSW,242,3.0,13.0,44,0.00,,,0.00,,2013-05-14 17:13:00,
2013-05-14 12:24:00,78.0,54.0,29.73,WSW,242,3.0,13.0,44,0.00,,,0.00,,2013-05-14 17:24:00,
2013-05-14 12:32:00,78.0,54.0,29.73,WSW,242,3.0,13.0,44,0.00,,,0.00,,2013-05-14 17:32:00,
2013-05-14 12:43:00,78.0,54.0,29.73,WSW,242,3.0,13.0,44,0.00,,,0.00,,2013-05-14 17:43:00,
2013-05-14 12:52:00,81.0,55.0,29.73,WNW,292,1.0,7.0,41,0.00,,,0.00,,2013-05-14 17:52:00,
2013-05-14 13:02:00,81.0,55.0,29.73,WNW,292,1.0,7.0,41,0.00,,,0.00,,2013-05-14 18:02:00,
2013-05-14 13:12:00,81.0,55.0,29.73,WNW,292,1.0,7.0,41,0.00,,,0.00,,2013-05-14 18:12:00,
2013-05-14 13:22:00,83.0,54.0,29.73,WSW,242,6.0,14.0,37,0.00,,,0.00,,2013-05-14 18:22:00,
2013-05-14 13:32:00,84.0,54.0,29.73,SW,230,2.0,13.0,36,0.00,,,0.00,,2013-05-14 18:32:00,
2013-05-14 13:42:00,84.0,54.0,29.73,SW,230,2.0,13.0,36,0.00,,,0.00,,2013-05-14 18:42:00,
2013-05-14 13:52:00,85.0,54.0,29.72,WNW,299,4.0,10.0,35,0.00,,,0.00,,2013-05-14 18:52:00,
2013-05-14 14:01:00,86.0,57.0,29.72,WNW,288,0.0,6.0,37,0.00,,,0.00,,2013-05-14 19:01:00,
2013-05-14 14:12:00,86.0,57.0,29.72,WNW,288,0.0,6.0,37,0.00,,,0.00,,2013-05-14 19:12:00,
2013-05-14 14:22:00,86.0,57.0,29.72,WNW,288,0.0,6.0,37,0.00,,,0.00,,2013-05-14 19:22:00,
2013-05-14 14:32:00,86.0,57.0,29.72,WNW,288,0.0,6.0,37,0.00,,,0.00,,2013-05-14 19:32:00,
2013-05-14 14:42:00,86.0,57.0,29.72,WNW,288,0.0,6.0,37,0.00,,,0.00,,2013-05-14 19:42:00,
2013-05-14 14:53:00,88.0,51.0,29.71,WNW,289,7.0,13.0,28,0.00,,,0.00,,2013-05-14 19:53:00,
2013-05-14 15:02:00,88.0,51.0,29.72,West,260,2.0,12.0,28,0.00,,,0.00,,2013-05-14 20:02:00,
2013-05-14 15:11:00,88.0,51.0,29.72,West,260,2.0,12.0,28,0.00,,,0.00,,2013-05-14 20:11:00,
2013-05-14 15:23:00,89.0,50.0,29.71,WNW,302,2.0,8.0,26,0.00,,,0.00,,2013-05-14 20:23:00,
2013-05-14 15:32:00,89.0,50.0,29.71,WNW,302,2.0,8.0,26,0.00,,,0.00,,2013-05-14 20:32:00,
2013-05-14 15:44:00,89.0,50.0,29.71,WNW,302,2.0,8.0,26,0.00,,,0.00,,2013-05-14 20:44:00,
2013-05-14 15:52:00,90.0,48.0,29.71,West,268,3.0,8.0,24,0.00,,,0.00,,2013-05-14 20:52:00,
2013-05-14 16:03:00,90.0,48.0,29.71,West,268,3.0,8.0,24,0.00,,,0.00,,2013-05-14 21:03:00,
2013-05-14 16:12:00,90.0,48.0,29.71,West,268,3.0,8.0,24,0.00,,,0.00,,2013-05-14 21:12:00,
2013-05-14 16:23:00,90.0,48.0,29.71,WSW,253,1.0,12.0,24,0.00,,,0.00,,2013-05-14 21:23:00,
2013-05-14 16:33:00,91.0,48.0,29.71,SW,235,0.0,3.0,23,0.00,,,0.00,,2013-05-14 21:33:00,
2013-05-14 16:43:00,91.0,48.0,29.71,SW,235,0.0,3.0,23,0.00,,,0.00,,2013-05-14 21:43:00,
2013-05-14 16:53:00,92.0,49.0,29.70,West,275,1.0,6.0,23,0.00,,,0.00,,2013-05-14 21:53:00,
2013-05-14 17:03:00,92.0,48.0,29.69,SSW,192,1.0,3.0,22,0.00,,,0.00,,2013-05-14 22:03:00,
2013-05-14 17:13:00,92.0,48.0,29.69,SSW,192,1.0,3.0,22,0.00,,,0.00,,2013-05-14 22:13:00,
2013-05-14 17:24:00,91.0,47.0,29.68,SE,142,0.0,3.0,22,0.00,,,0.00,,2013-05-14 22:24:00,
2013-05-14 17:34:00,91.0,46.0,29.67,SE,144,0.0,2.0,21,0.00,,,0.00,,2013-05-14 22:34:00,
2013-05-14 17:45:00,91.0,46.0,29.67,SE,144,0.0,2.0,21,0.00,,,0.00,,2013-05-14 22:45:00,
2013-05-14 17:54:00,91.0,47.0,29.66,SSW,201,0.0,5.0,22,0.00,,,0.00,,2013-05-14 22:54:00,
2013-05-14 18:03:00,90.0,45.0,29.65,SSE,164,0.0,6.0,21,0.00,,,0.00,,2013-05-14 23:03:00,
2013-05-14 18:12:00,90.0,45.0,29.65,SSE,164,0.0,6.0,21,0.00,,,0.00,,2013-05-14 23:12:00,
2013-05-14 18:21:00,90.0,48.0,29.65,East,98,2.0,8.0,24,0.00,,,0.00,,2013-05-14 23:21:00,
2013-05-14 18:31:00,90.0,48.0,29.65,East,98,2.0,8.0,24,0.00,,,0.00,,2013-05-14 23:31:00,
2013-05-14 18:44:00,90.0,48.0,29.65,East,98,2.0,8.0,24,0.00,,,0.00,,2013-05-14 23:44:00,
2013-05-14 18:52:00,84.0,55.0,29.62,ESE,109,2.0,11.0,37,0.00,,,0.00,,2013-05-14 23:52:00,
2013-05-14 19:02:00,83.0,54.0,29.62,SE,135,2.0,8.0,37,0.00,,,0.00,,2013-05-15 00:02:00,
2013-05-14 19:11:00,83.0,54.0,29.62,SE,135,2.0,8.0,37,0.00,,,0.00,,2013-05-15 00:11:00,
2013-05-14 19:21:00,82.0,54.0,29.61,ESE,121,5.0,12.0,38,0.00,,,0.00,,2013-05-15 00:21:00,
2013-05-14 19:32:00,81.0,54.0,29.61,SE,126,2.0,8.0,40,0.00,,,0.00,,2013-05-15 00:32:00,
2013-05-14 19:42:00,81.0,54.0,29.61,SE,126,2.0,8.0,40,0.00,,,0.00,,2013-05-15 00:42:00,
2013-05-14 19:52:00,80.0,54.0,29.62,ESE,114,1.0,6.0,41,0.00,,,0.00,,2013-05-15 00:52:00,
2013-05-14 20:01:00,79.0,55.0,29.62,ESE,123,1.0,3.0,43,0.00,,,0.00,,2013-05-15 01:01:00,
2013-05-14 20:11:00,79.0,55.0,29.62,ESE,123,1.0,3.0,43,0.00,,,0.00,,2013-05-15 01:11:00,
2013-05-14 20:21:00,79.0,55.0,29.62,ESE,107,0.0,5.0,44,0.00,,,0.00,,2013-05-15 01:21:00,
2013-05-14 20:31:00,78.0,54.0,29.62,SE,136,0.0,3.0,44,0.00,,,0.00,,2013-05-15 01:31:00,
2013-05-14 20:42:00,78.0,54.0,29.62,SE,136,0.0,3.0,44,0.00,,,0.00,,2013-05-15 01:42:00,
2013-05-14 20:52:00,77.0,53.0,29.63,SE,136,0.0,0.0,44,0.00,,,0.00,,2013-05-15 01:52:00,
2013-05-14 21:02:00,77.0,53.0,29.63,SE,136,0.0,0.0,44,0.00,,,0.00,,2013-05-15 02:02:00,
2013-05-14 21:11:00,77.0,53.0,29.63,SE,136,0.0,0.0,44,0.00,,,0.00,,2013-05-15 02:11:00,
2013-05-14 21:52:00,72.0,-99.9,29.68,ESE,106,0.0,0.0,-999,0.00,,,0.00,,2013-05-15 02:52:00,
2013-05-14 22:01:00,72.0,-99.9,29.70,ESE,106,0.0,0.0,-999,0.00,,,0.00,,2013-05-15 03:01:00,
2013-05-14 22:13:00,72.0,-99.9,29.70,ESE,106,0.0,0.0,-999,0.00,,,0.00,,2013-05-15 03:13:00,
2013-05-14 22:22:00,72.0,-99.9,29.70,ESE,106,0.0,0.0,-999,0.00,,,0.00,,2013-05-15 03:22:00,